This is the latest recevied weather packets stored in our database for station/object EA1GEC-10. If no packets are shown the sender has not sent any weather packets the latest 10 day(s).
| Time | Temp. | Humidity | Pressure | Rain* | Wind** | Luminosity | Snow |
|---|---|---|---|---|---|---|---|
| 1777582690 | 15° C | 66% | 1025.9 hPa | - | - | - | - |
| 1777581790 | 15° C | 66% | 1025.7 hPa | - | - | - | - |
| 1777580890 | 15.56° C | 65% | 1025.6 hPa | - | - | - | - |
| 1777580035 | 15.56° C | 65% | 1025.4 hPa | - | - | - | - |
| 1777579990 | 15.56° C | 65% | 1025.4 hPa | - | - | - | - |
| 1777579090 | 15.56° C | 65% | 1025.2 hPa | - | - | - | - |
| 1777578190 | 15.56° C | 64% | 1025 hPa | - | - | - | - |
| 1777577347 | 15.56° C | 64% | 1024.8 hPa | - | - | - | - |
| 1777577290 | 15.56° C | 64% | 1024.8 hPa | - | - | - | - |
| 1777576390 | 15.56° C | 63% | 1024.7 hPa | - | - | - | - |
| 1777575499 | 16.11° C | 63% | 1024.7 hPa | - | - | - | - |
| 1777574589 | 16.11° C | 62% | 1024.6 hPa | - | - | - | - |
| 1777573689 | 16.11° C | 61% | 1024.5 hPa | - | - | - | - |
| 1777572789 | 16.11° C | 61% | 1024.5 hPa | - | - | - | - |
| 1777571889 | 16.67° C | 60% | 1024.4 hPa | - | - | - | - |
| 1777570989 | 16.67° C | 60% | 1024.3 hPa | - | - | - | - |
| 1777570089 | 16.67° C | 59% | 1024.3 hPa | - | - | - | - |
| 1777569189 | 17.22° C | 58% | 1024.2 hPa | - | - | - | - |
| 1777568289 | 17.78° C | 56% | 1024.3 hPa | - | - | - | - |
| 1777567389 | 18.33° C | 57% | 1024 hPa | - | - | - | - |
| 1777566489 | 18.33° C | 56% | 1024 hPa | - | - | - | - |
| 1777565588 | 18.33° C | 55% | 1023.9 hPa | - | - | - | - |
| 1777564688 | 18.89° C | 54% | 1024 hPa | - | - | - | - |
| 1777563788 | 19.44° C | 54% | 1023.9 hPa | - | - | - | - |
| 1777562888 | 18.33° C | 55% | 1024 hPa | - | - | - | - |
* Rain since midnight (hover to see other rain measurements)
** Current wind speed in m/s (hover to see current wind gust speed)